• In Germany
  • List of Countries
  • For 7 days
  • Water Temperature
  • Satellite Maps
  • Weather Map
  • Weather Widgets
  • user-avatar
    Login

    Hourly Weather Georgetown

    Today, 22 February, Thursday

    Time Temperature Precipitation Wind Pressure Humidity
    00:00 +28°C° 0 mm 2 mps 729 mmHg 29%
    01:00 +27°C° 0 mm 1 mps 729 mmHg 30%
    02:00 +27°C° 0 mm 1 mps 729 mmHg 30%
    03:00 +27°C° 0 mm 1 mps 729 mmHg 30%
    04:00 +27°C° 0 mm 1 mps 729 mmHg 30%
    05:00 +27°C° 0 mm 1 mps 729 mmHg 30%
    06:00 +27°C° 0 mm 1 mps 729 mmHg 30%
    07:00 +29°C° 0 mm 2 mps 729 mmHg 28%
    08:00 +31°C° 0 mm 2 mps 730 mmHg 26%
    09:00 +34°C° 0 mm 3 mps 730 mmHg 24%
    10:00 +36°C° 0 mm 3 mps 730 mmHg 22%
    11:00 +37°C° 0 mm 3 mps 730 mmHg 22%
    12:00 +38°C° 0 mm 4 mps 730 mmHg 21%
    13:00 +38°C° 0 mm 4 mps 729 mmHg 21%
    14:00 +38°C° 0 mm 4 mps 729 mmHg 21%
    15:00 +38°C° 0 mm 4 mps 728 mmHg 20%
    16:00 +38°C° 0 mm 4 mps 728 mmHg 20%
    17:00 +36°C° 0 mm 4 mps 728 mmHg 22%
    18:00 +34°C° 0 mm 4 mps 728 mmHg 23%
    19:00 +32°C° 0 mm 4 mps 728 mmHg 25%
    20:00 +32°C° 0 mm 4 mps 729 mmHg 25%
    21:00 +32°C° 0 mm 4 mps 729 mmHg 26%
    22:00 +30°C° 0 mm 3 mps 730 mmHg 26%
    23:00 +30°C° 0 mm 3 mps 730 mmHg 26%

    Tomorrow, 23 February, Friday

    Time Temperature Precipitation Wind Pressure Humidity
    00:00 +30°C° 0 mm 3 mps 729 mmHg 26%
    01:00 +30°C° 0 mm 3 mps 729 mmHg 27%
    02:00 +30°C° 0 mm 3 mps 729 mmHg 27%
    03:00 +30°C° 0 mm 3 mps 729 mmHg 27%
    04:00 +30°C° 0 mm 3 mps 729 mmHg 27%
    05:00 +29°C° 0 mm 3 mps 729 mmHg 27%
    06:00 +29°C° 0 mm 4 mps 729 mmHg 28%
    07:00 +29°C° 0 mm 5 mps 730 mmHg 28%
    08:00 +32°C° 0 mm 5 mps 730 mmHg 26%
    09:00 +34°C° 0 mm 5 mps 731 mmHg 24%
    10:00 +36°C° 0 mm 4 mps 731 mmHg 22%
    11:00 +37°C° 0 mm 3 mps 731 mmHg 23%
    12:00 +38°C° 0 mm 2 mps 730 mmHg 24%
    13:00 +38°C° 0 mm 2 mps 730 mmHg 25%
    14:00 +38°C° 0 mm 2 mps 729 mmHg 24%
    15:00 +38°C° 0 mm 3 mps 729 mmHg 24%
    16:00 +38°C° 0 mm 4 mps 728 mmHg 24%
    17:00 +36°C° 0 mm 4 mps 729 mmHg 27%
    18:00 +35°C° 0 mm 4 mps 729 mmHg 30%
    19:00 +33°C° 0 mm 4 mps 729 mmHg 32%
    20:00 +32°C° 0 mm 4 mps 730 mmHg 32%
    21:00 +32°C° 0 mm 4 mps 730 mmHg 31%
    22:00 +32°C° 0 mm 4 mps 731 mmHg 30%
    23:00 +32°C° 0 mm 4 mps 731 mmHg 30%

    Day after tomorrow, 24 February, Saturday

    Time Temperature Precipitation Wind Pressure Humidity
    00:00 +30°C° 0 mm 5 mps 730 mmHg 30%
    01:00 +30°C° 0 mm 5 mps 730 mmHg 29%
    02:00 +30°C° 0 mm 5 mps 730 mmHg 29%
    03:00 +30°C° 0 mm 5 mps 730 mmHg 29%
    04:00 +29°C° 0 mm 5 mps 729 mmHg 30%
    05:00 +29°C° 0 mm 5 mps 730 mmHg 30%
    06:00 +29°C° 0 mm 5 mps 730 mmHg 30%
    07:00 +29°C° 0 mm 4 mps 731 mmHg 30%
    08:00 +33°C° 0 mm 5 mps 731 mmHg 28%
    09:00 +35°C° 0 mm 5 mps 732 mmHg 25%
    10:00 +37°C° 0 mm 5 mps 732 mmHg 23%
    11:00 +38°C° 0 mm 4 mps 732 mmHg 23%
    12:00 +38°C° 0 mm 3 mps 731 mmHg 24%
    13:00 +39°C° 0 mm 2 mps 730 mmHg 25%
    14:00 +39°C° 0 mm 3 mps 730 mmHg 24%
    15:00 +39°C° 0 mm 3 mps 729 mmHg 23%
    16:00 +41°C° 0 mm 4 mps 729 mmHg 23%
    17:00 +38°C° 0 mm 4 mps 729 mmHg 24%
    18:00 +36°C° 0 mm 4 mps 730 mmHg 26%
    19:00 +34°C° 0 mm 5 mps 730 mmHg 28%
    20:00 +33°C° 0 mm 5 mps 731 mmHg 27%
    21:00 +33°C° 0 mm 5 mps 731 mmHg 26%
    22:00 +33°C° 0 mm 5 mps 731 mmHg 25%
    23:00 +32°C° 0 mm 6 mps 731 mmHg 24%

    25 February, Sunday

    Time Temperature Precipitation Wind Pressure Humidity
    00:00 +32°C° 0 mm 6 mps 731 mmHg 23%
    01:00 +32°C° 0 mm 7 mps 731 mmHg 22%
    02:00 +30°C° 0 mm 7 mps 731 mmHg 21%
    03:00 +30°C° 0 mm 7 mps 731 mmHg 21%
    04:00 +29°C° 0 mm 7 mps 731 mmHg 20%
    05:00 +29°C° 0 mm 7 mps 731 mmHg 19%
    06:00 +28°C° 0 mm 7 mps 732 mmHg 18%
    07:00 +28°C° 0 mm 8 mps 733 mmHg 18%
    08:00 +30°C° 0 mm 7 mps 733 mmHg 18%
    09:00 +33°C° 0 mm 7 mps 733 mmHg 18%
    10:00 +36°C° 0 mm 6 mps 733 mmHg 18%
    11:00 +37°C° 0 mm 5 mps 733 mmHg 18%
    12:00 +39°C° 0 mm 5 mps 732 mmHg 19%
    13:00 +40°C° 0 mm 4 mps 731 mmHg 19%
    14:00 +39°C° 0 mm 3 mps 730 mmHg 20%
    15:00 +39°C° 0 mm 3 mps 730 mmHg 21%
    16:00 +39°C° 0 mm 2 mps 729 mmHg 22%
    17:00 +38°C° 0 mm 2 mps 730 mmHg 23%
    18:00 +36°C° 0 mm 3 mps 730 mmHg 24%
    19:00 +34°C° 0 mm 3 mps 731 mmHg 25%
    20:00 +34°C° 0 mm 3 mps 731 mmHg 24%
    21:00 +33°C° 0 mm 3 mps 731 mmHg 23%
    22:00 +33°C° 0 mm 3 mps 731 mmHg 22%
    23:00 +33°C° 0 mm 4 mps 731 mmHg 22%

    26 February, Monday

    Time Temperature Precipitation Wind Pressure Humidity
    00:00 +32°C° 0 mm 4 mps 731 mmHg 22%
    01:00 +32°C° 0 mm 4 mps 731 mmHg 22%
    02:00 +30°C° 0 mm 4 mps 731 mmHg 22%
    03:00 +30°C° 0 mm 4 mps 730 mmHg 23%
    04:00 +30°C° 0 mm 4 mps 730 mmHg 23%
    05:00 +30°C° 0 mm 4 mps 731 mmHg 23%
    06:00 +30°C° 0 mm 5 mps 731 mmHg 23%
    07:00 +29°C° 0 mm 5 mps 732 mmHg 23%
    08:00 +33°C° 0 mm 4 mps 732 mmHg 21%
    09:00 +35°C° 0 mm 4 mps 732 mmHg 20%
    10:00 +37°C° 0 mm 4 mps 733 mmHg 19%
    11:00 +38°C° 0 mm 4 mps 732 mmHg 20%
    12:00 +39°C° 0 mm 3 mps 731 mmHg 21%
    13:00 +40°C° 0 mm 3 mps 730 mmHg 22%
    14:00 +40°C° 0 mm 3 mps 730 mmHg 22%
    15:00 +41°C° 0 mm 4 mps 730 mmHg 21%
    16:00 +41°C° 0 mm 4 mps 729 mmHg 21%
    17:00 +37°C° 0 mm 4 mps 730 mmHg 23%
    18:00 +35°C° 0 mm 4 mps 730 mmHg 26%
    19:00 +33°C° 0 mm 4 mps 730 mmHg 28%
    20:00 +33°C° 0 mm 4 mps 731 mmHg 27%
    21:00 +32°C° 0 mm 4 mps 731 mmHg 26%
    22:00 +32°C° 0 mm 4 mps 731 mmHg 26%
    23:00 +32°C° 0 mm 4 mps 731 mmHg 25%

    27 February, Tuesday

    Time Temperature Precipitation Wind Pressure Humidity
    00:00 +30°C° 0 mm 5 mps 731 mmHg 25%
    01:00 +30°C° 0 mm 5 mps 731 mmHg 24%
    02:00 +30°C° 0 mm 4 mps 730 mmHg 24%
    03:00 +29°C° 0 mm 4 mps 730 mmHg 25%
    04:00 +29°C° 0 mm 4 mps 730 mmHg 25%
    05:00 +29°C° 0 mm 4 mps 731 mmHg 26%
    06:00 +29°C° 0 mm 4 mps 731 mmHg 27%
    07:00 +28°C° 0 mm 5 mps 732 mmHg 28%
    08:00 +32°C° 0 mm 5 mps 732 mmHg 25%
    09:00 +34°C° 0 mm 5 mps 732 mmHg 23%
    10:00 +37°C° 0 mm 5 mps 733 mmHg 21%
    11:00 +38°C° 0 mm 4 mps 732 mmHg 21%
    12:00 +40°C° 0 mm 4 mps 731 mmHg 22%
    13:00 +40°C° 0 mm 3 mps 731 mmHg 22%
    14:00 +40°C° 0 mm 3 mps 730 mmHg 22%
    15:00 +41°C° 0 mm 4 mps 730 mmHg 22%
    16:00 +41°C° 0 mm 4 mps 730 mmHg 22%
    17:00 +38°C° 0 mm 4 mps 730 mmHg 23%
    18:00 +36°C° 0 mm 4 mps 730 mmHg 25%
    19:00 +34°C° 0 mm 4 mps 731 mmHg 27%
    20:00 +33°C° 0 mm 4 mps 731 mmHg 26%
    21:00 +33°C° 0 mm 5 mps 732 mmHg 25%
    22:00 +33°C° 0 mm 5 mps 732 mmHg 23%
    23:00 +32°C° 0 mm 5 mps 732 mmHg 22%
    Show more